STARLINK-3068, 49154

Orbit data source: Space-Track

STARLINK-3068, 49154 is a payload satellite owned by SpaceX/Seattle (US) in LEO that was launched on Tue, 14 Sep 2021 UTC via an FALCON 9 launch vehicle from the Air Force Western Test Range (AFWTR). Payload-class satellites include a variety of spacecraft equipped with specific instruments for various scientific and technological missions. These include communications satellites like Starlink; space stations such as the ISS; scientific satellites like the Hubble; Earth observation satellites from companies like Planet Labs, Umbra, and HawkEye 360; GPS; miniature CubeSats for education and research; and military/defense satellites.

Loading next visibility...
Identifier
49154, 2021-082AA
Orbit
LEO
Country
Flag of USUS
Related business
Manufacturer
SpaceX/Seattle
Mission
Operational Commercial Communications
Bus & Motor
STARLINK, Unknown motor
Mass
297 kg wet, ~275 kg dry
Launch date (UTC)
2021-09-14 (5 years ago)
Launch vehicle
FALCON 9
Launch site
Air Force Western Test Range (AFWTR)
Object type
Payload
Rocket body
Debris
Shape & HBR
Box + 1 Pan, 10.1 m
Radar Cross Section
13.562 m², Large (>1 m²)

Expand to show TLE details & history
Last TLE update: 18 hours ago

TLE from 18 hours ago
0 STARLINK-3068
1 49154U 21082AA  26125.43641694  .00001917  00000-0  17191-3 0  9999
2 49154  69.9992 132.3339 0003633 268.0040  92.0703 14.97513910256024
Epoch: 2026-05-05T10:28Z
TLE epoch observation values (Epoch: 2026-05-05T10:28:26.423Z)
Latitude
0.00001°
Longitude
111.91252°
Altitude
577.096 km
Speed
7.572 km/s
True Right ascension
08h 49m 20s
True Declination
0° 00' 00"
Sunlit
Object was in daylight at epoch
Visualization orbit readout
Latitude
Unknown
Longitude
Unknown
Altitude
Unknown
Speed
Unknown
Apparent Right ascension
Unknown
Apparent Declination
Unknown
Sunlit
N/A
Visualization observer readout
Local Sidereal Time
12:14:09
Azimuth
Unknown
Elevation
Unknown
Doppler factor
Unknown
Orbital elements
Apogee altitude
575.055 km
Perigee altitude
570.005 km
Semi-major axis
6,950.667 km
Eccentricity
0.00036
Inclination
69.9992°
RAAN
132.3339°
Arg. of periapsis
268.004°
True anomaly
92.1119°
Mean anomaly
92.0703°
Eccentric anomaly
92.0911°
Mean motion
3.74545 °/min
Orbital period
96.12 mins
BSTAR
0.00017191
Loading maneuver chart data...
Computing Atmospheric mass density...
Loading historical data...
Loading historical data...
Loading historical data...
Loading historical data...
Loading historical data...
Loading historical data...
Loading historical data...

Documentation

Showing up to 5 results
|